TimeEST,TemperatureF,Dew PointF,Humidity,Sea Level PressureIn,VisibilityMPH,Wind Direction,Wind SpeedMPH,Gust SpeedMPH,PrecipitationIn,Events,Conditions,WindDirDegrees,DateUTC
12:19 AM,33.8,28.4,81,30.34,10.0,NNW,4.6,-,N/A,,Overcast,340,2013-12-01 05:19:00
12:43 AM,33.8,28.4,81,30.33,10.0,North,5.8,-,N/A,,Overcast,350,2013-12-01 05:43:00
12:44 AM,33.8,28.4,81,30.33,10.0,NNW,5.8,-,N/A,,Overcast,340,2013-12-01 05:44:00
12:46 AM,33.8,28.4,81,30.33,10.0,NNW,5.8,-,N/A,,Overcast,340,2013-12-01 05:46:00
12:54 AM,33.8,28.4,81,30.32,10.0,NNW,5.8,-,N/A,,Overcast,330,2013-12-01 05:54:00
12:58 AM,34.7,28.9,79,30.34,10.0,NNW,5.8,-,N/A,,Overcast,340,2013-12-01 05:58:00
1:05 AM,35.6,28.4,75,30.32,10.0,NNW,5.8,-,N/A,,Overcast,340,2013-12-01 06:05:00
1:16 AM,35.6,28.4,75,30.31,10.0,NNW,5.8,-,N/A,,Overcast,340,2013-12-01 06:16:00
1:21 AM,33.8,28.4,81,30.31,10.0,North,5.8,-,N/A,,Mostly Cloudy,350,2013-12-01 06:21:00
1:23 AM,33.8,28.4,81,30.31,10.0,North,5.8,-,N/A,,Mostly Cloudy,350,2013-12-01 06:23:00
1:25 AM,33.8,28.4,81,30.31,10.0,NNW,5.8,-,N/A,,Mostly Cloudy,340,2013-12-01 06:25:00
1:58 AM,33.1,28.8,84,30.32,10.0,NNW,5.8,-,N/A,,Overcast,330,2013-12-01 06:58:00
2:58 AM,33.1,28.9,85,30.30,10.0,NW,6.9,-,N/A,,Mostly Cloudy,320,2013-12-01 07:58:00
3:25 AM,32.0,28.4,87,30.28,10.0,NW,6.9,-,N/A,,Mostly Cloudy,320,2013-12-01 08:25:00
3:30 AM,33.8,28.4,81,30.27,10.0,NW,8.1,-,N/A,,Overcast,320,2013-12-01 08:30:00
3:58 AM,35.1,28.6,77,30.27,10.0,NNW,6.9,-,N/A,,Overcast,330,2013-12-01 08:58:00
4:13 AM,35.6,28.4,75,30.26,10.0,NNW,4.6,-,N/A,,Overcast,340,2013-12-01 09:13:00
4:42 AM,32.0,28.4,87,30.25,10.0,North,5.8,-,N/A,,Scattered Clouds,350,2013-12-01 09:42:00
4:58 AM,31.3,27.0,84,30.26,10.0,NNW,4.6,-,N/A,,Partly Cloudy,330,2013-12-01 09:58:00
5:58 AM,30.0,26.6,87,30.24,10.0,Calm,Calm,-,N/A,,Partly Cloudy,0,2013-12-01 10:58:00
6:58 AM,29.8,26.4,87,30.24,10.0,WNW,3.5,-,N/A,,Clear,290,2013-12-01 11:58:00
7:58 AM,31.6,28.2,87,30.24,10.0,WNW,3.5,-,N/A,,Clear,290,2013-12-01 12:58:00
8:58 AM,37.6,30.0,74,30.24,10.0,NNW,4.6,-,N/A,,Clear,330,2013-12-01 13:58:00
9:58 AM,42.3,31.6,66,30.22,10.0,Variable,2.3,-,N/A,,Clear,0,2013-12-01 14:58:00
10:58 AM,44.8,31.5,60,30.19,10.0,WNW,8.1,-,N/A,,Clear,290,2013-12-01 15:58:00
11:58 AM,46.6,31.3,55,30.16,10.0,West,4.6,-,N/A,,Clear,280,2013-12-01 16:58:00
12:58 PM,48.2,30.6,51,30.12,10.0,Variable,4.6,-,N/A,,Clear,0,2013-12-01 17:58:00
1:58 PM,49.3,30.2,48,30.09,10.0,SW,4.6,-,N/A,,Clear,220,2013-12-01 18:58:00
2:58 PM,48.6,30.4,50,30.09,10.0,WSW,5.8,-,N/A,,Overcast,250,2013-12-01 19:58:00
3:58 PM,47.7,30.6,52,30.07,10.0,West,3.5,-,N/A,,Overcast,270,2013-12-01 20:58:00
4:58 PM,45.9,30.4,55,30.08,10.0,WNW,4.6,-,N/A,,Overcast,290,2013-12-01 21:58:00
5:58 PM,44.8,30.7,58,30.06,10.0,West,3.5,-,N/A,,Overcast,260,2013-12-01 22:58:00
6:58 PM,43.7,30.7,60,30.06,10.0,WSW,4.6,-,N/A,,Overcast,240,2013-12-01 23:58:00
7:58 PM,42.8,30.7,62,30.06,10.0,SW,4.6,-,N/A,,Overcast,230,2013-12-02 00:58:00
8:58 PM,40.6,31.3,69,30.06,10.0,SW,4.6,-,N/A,,Overcast,220,2013-12-02 01:58:00
9:58 PM,39.6,31.3,72,30.04,10.0,SW,4.6,-,N/A,,Overcast,230,2013-12-02 02:58:00
10:58 PM,40.6,30.7,68,30.04,10.0,WSW,3.5,-,N/A,,Overcast,240,2013-12-02 03:58:00
11:58 PM,40.3,30.0,67,30.02,10.0,West,4.6,-,N/A,,Overcast,260,2013-12-02 04:58:00